This demonstration page uses our WeatherBlox Daily Observations layout. Learn more.

Left ArrowRight Arrow

30.00354, -91.81873

Hourly Observations for August 23, 2022

Temp ( °F °C ) Dew Point ( °F °C ) Humidity (%) Winds ( mph kmh ) Pressure ( in mb ) Visibility ( mi km ) Precip ( " mm )
12:53 am 00:53 Mostly Clear 78 25.6 76 24.4 93 93 E 3 6 29.93 1014 10 16 0.00 0.00
1:53 am 01:53 Partly Cloudy with Light Rain 78 25.6 76 24.4 93 93 SSE 3 6 29.91 1013 10 16 0.01 0.13
2:53 am 02:53 Partly Cloudy 78 25.6 76 24.4 93 93 ESE 6 9 29.88 1012 10 16 0.01 0.13
3:53 am 03:53 Mostly Clear 78 25.6 76 24.4 93 93 SSE 6 9 29.88 1012 10 16 0.00 0.00
4:53 am 04:53 Mostly Clear 78 25.6 76 24.4 93 93 Calm 29.88 1012 10 16 0.01 0.13
5:53 am 05:53 Mostly Cloudy 76 24.4 73 22.8 91 91 WSW 6 9 29.89 1012 10 16 0.10 2.54
6:53 am 06:53 Partly Cloudy with Heavy Rain 76 24.4 72 22.2 88 88 SW 14 22 29.91 1013 3 4 0.15 3.81
7:09 am 07:09 Mostly Cloudy with Heavy Rain 75 23.9 72 22.2 90 90 N 5 7 29.90 1012 3 5 0.10 2.54
7:31 am 07:31 Mostly Cloudy with Nearby Thunderstorms 75 23.9 72 22.2 90 90 ESE 6 9 29.90 1012 10 16 0.10 2.54
7:46 am 07:46 Mostly Cloudy with Light Rain 75 23.9 72 22.2 90 90 SSE 3 6 29.91 1013 10 16 0.10 2.54
7:55 am 07:55 Mostly Cloudy with Heavy Rain 75 23.9 71 21.7 88 88 WSW 8 13 29.91 1013 2 3 0.03 0.76
8:06 am 08:06 Cloudy with Rain 75 23.9 71 21.7 88 88 Calm 29.91 1013 3 5 0.05 1.27
8:28 am 08:28 Cloudy with Light Rain 75 23.9 72 22.2 90 90 E 6 9 29.90 1012 10 16 0.07 1.78
8:36 am 08:36 Cloudy with Light Rain 75 23.9 72 22.2 90 90 ESE 3 6 29.90 1012 10 16 0.07 1.78
8:53 am 08:53 Mostly Cloudy 76 24.4 72 22.2 88 88 ESE 3 6 29.90 1012 10 16 0.07 1.78
9:53 am 09:53 Mostly Cloudy with Light Rain 78 25.6 74 23.3 87 87 E 3 6 29.91 1013 10 16 0.01 0.25
10:53 am 10:53 Mostly Sunny 83 28.3 76 24.4 79 79 S 6 9 29.90 1012 10 16 0.01 0.13
11:30 am 11:30 Mostly Cloudy with Heavy Rain 78 25.6 72 22.2 82 82 SSE 10 17 29.90 1012 2 3 0.07 1.78
11:37 am 11:37 Partly Cloudy with Light Rain 78 25.6 73 22.8 85 85 SE 9 15 29.90 1012 3 5 0.07 1.78
11:53 am 11:53 Mostly Cloudy 81 27.2 73 22.8 77 77 SE 6 9 29.88 1012 10 16 0.07 1.78
12:53 pm 12:53 Cloudy with Light Rain 81 27.2 75 23.9 82 82 WNW 10 17 29.88 1012 10 16 0.01 0.13
1:53 pm 13:53 Mostly Cloudy 79 26.1 74 23.3 85 85 NW 9 15 29.89 1012 10 16 0.02 0.51
2:53 pm 14:53 Cloudy with Light Rain 76 24.4 73 22.8 91 91 SSW 5 7 29.88 1012 7 11 0.09 2.29
3:53 pm 15:53 Partly Cloudy 79 26.1 74 23.3 85 85 W 3 6 29.87 1012 10 16 0.01 0.13
4:53 pm 16:53 Partly Cloudy with Light Rain 81 27.2 74 23.3 79 79 Calm 29.87 1011 10 16 0.01 0.13
5:53 pm 17:53 Partly Cloudy 79 26.1 75 23.9 88 88 ESE 6 9 29.87 1012 10 16 0.01 0.13
6:53 pm 18:53 Cloudy 78 25.6 75 23.9 90 90 ESE 6 9 29.86 1011 10 16 0.01 0.13
7:53 pm 19:53 Mostly Clear 78 25.6 75 23.9 90 90 ESE 5 7 29.86 1011 10 16 0.00 0.00
8:53 pm 20:53 Clear 76 24.4 73 22.8 91 91 SE 6 9 29.88 1012 10 16 0.00 0.00
9:53 pm 21:53 Clear 76 24.4 74 23.3 94 94 SSE 7 11 29.89 1012 10 16 0.00 0.00
10:53 pm 22:53 Clear 77 25 74 23.3 90 90 SSE 7 11 29.89 1012 10 16 0.00 0.00
11:53 pm 23:53 Clear 76 24.4 74 23.3 94 94 SSE 5 7 29.89 1012 10 16 0.00 0.00

Powered by AerisWeather